�������l�o���
Date,Time,MP-1(��Sv/h),MP-2(��Sv/h),MP-3(��Sv/h),MP-4(��Sv/h),MP-5(��Sv/h),MP-6(��Sv/h),MP-7(��Sv/h),MP-8(��Sv/h),����,����(m/s),���J
2013/07/16,00:00,2.8,4.9,5.7,5.1,5.3,2.8,3.4,3.3,�k,4.8,��
2013/07/16,00:10,2.8,4.9,5.6,5.1,5.3,2.8,3.4,3.3,�k,4.2,��
2013/07/16,00:20,2.8,4.9,5.7,5.1,5.3,2.8,3.4,3.3,�k,4.5,��
2013/07/16,00:30,2.8,4.9,5.6,5.1,5.3,2.8,3.4,3.3,�k�k��,4.5,��
2013/07/16,00:40,2.8,4.9,5.6,5.1,5.3,2.8,3.4,3.3,�k�k��,4.2,��
2013/07/16,00:50,2.8,4.9,5.6,5.1,5.3,2.8,3.4,3.3,�k,5.1,��
2013/07/16,01:00,2.8,4.9,5.6,5.1,5.3,2.8,3.4,3.3,�k,5.1,��
2013/07/16,01:10,2.8,4.9,5.7,5.1,5.3,2.8,3.4,3.3,�k,5.2,��
2013/07/16,01:20,2.8,4.9,5.6,5.1,5.3,2.8,3.4,3.3,�k,5.0,��
2013/07/16,01:30,2.8,4.9,5.6,5.1,5.3,2.8,3.4,3.3,�k,4.4,��
2013/07/16,01:40,2.8,4.9,5.6,5.1,5.3,2.8,3.4,3.3,�k,3.9,��
2013/07/16,01:50,2.8,4.9,5.6,5.1,5.3,2.8,3.4,3.3,�k,3.3,��
2013/07/16,02:00,2.8,4.9,5.6,5.1,5.3,2.8,3.4,3.3,�k,3.3,��
2013/07/16,02:10,2.8,4.9,5.6,5.1,5.3,2.8,3.4,3.3,�k,3.3,��
2013/07/16,02:20,2.8,4.9,5.6,5.1,5.3,2.8,3.4,3.3,�k,3.3,��
2013/07/16,02:30,2.8,4.9,5.6,5.1,5.3,2.8,3.4,3.3,�k,3.0,��
2013/07/16,02:40,2.8,4.9,5.6,5.1,5.3,2.8,3.4,3.3,�k,2.5,��
2013/07/16,02:50,2.8,4.9,5.6,5.1,5.3,2.8,3.4,3.3,�k,2.6,��
2013/07/16,03:00,2.8,4.9,5.6,5.1,5.3,2.8,3.4,3.3,�k,2.4,��
2013/07/16,03:10,2.8,4.9,5.6,5.1,5.3,2.8,3.4,3.3,�k,2.0,��
2013/07/16,03:20,2.8,4.9,5.6,5.1,5.3,2.8,3.4,3.3,�k,2.3,��
2013/07/16,03:30,2.8,4.9,5.6,5.1,5.3,2.8,3.4,3.3,�k�k��,2.0,��
2013/07/16,03:40,2.8,4.9,5.6,5.1,5.3,2.8,3.4,3.3,�k�k��,2.0,��
2013/07/16,03:50,2.8,4.9,5.6,5.1,5.3,2.8,3.4,3.3,�k,1.4,��
2013/07/16,04:00,2.8,4.9,5.6,5.1,5.3,2.8,3.4,3.3,�k,0.8,��
2013/07/16,04:10,2.8,4.9,5.6,5.1,5.3,2.8,3.4,3.3,�k�k��,0.9,��
2013/07/16,04:20,2.8,4.9,5.6,5.1,5.3,2.8,3.4,3.3,-,CALM,��
2013/07/16,04:30,2.8,4.9,5.6,5.1,5.3,2.8,3.4,3.3,-,CALM,��
2013/07/16,04:40,2.8,4.9,5.6,5.1,5.3,2.8,3.4,3.3,�k�k��,0.7,��
2013/07/16,04:50,2.8,4.9,5.6,5.1,5.3,2.8,3.4,3.3,-,CALM,��
2013/07/16,05:00,2.8,4.9,5.6,5.1,5.3,2.8,3.4,3.3,-,CALM,��
2013/07/16,05:10,2.8,4.9,5.6,5.1,5.3,2.8,3.4,3.3,�k��,0.6,��
2013/07/16,05:20,2.8,4.9,5.6,5.1,5.3,2.8,3.4,3.3,-,CALM,��
2013/07/16,05:30,2.8,4.9,5.6,5.1,5.3,2.8,3.4,3.3,�k��,0.8,��
2013/07/16,05:40,2.8,4.9,5.6,5.1,5.3,2.8,3.4,3.3,�k��,0.8,��
2013/07/16,05:50,2.8,4.9,5.6,5.1,5.3,2.8,3.4,3.3,�k�k��,0.7,��
2013/07/16,06:00,2.8,4.9,5.6,5.1,5.3,2.8,3.4,3.3,�k,0.8,��
2013/07/16,06:10,2.8,4.9,5.6,5.1,5.3,2.8,3.4,3.3,�k�k��,1.2,��
2013/07/16,06:20,2.8,4.9,5.6,5.1,5.3,2.8,3.4,3.3,�k,1.1,��
2013/07/16,06:30,2.8,4.9,5.6,5.1,5.3,2.8,3.4,3.3,�k,1.2,��
2013/07/16,06:40,2.8,4.9,5.6,5.1,5.3,2.8,3.4,3.3,�k,1.7,��
2013/07/16,06:50,2.8,4.9,5.6,5.1,5.3,2.8,3.4,3.3,�k�k��,1.3,��
2013/07/16,07:00,2.8,4.9,5.6,5.1,5.3,2.8,3.4,3.3,�k��,1.1,��
2013/07/16,07:10,2.8,4.9,5.6,5.1,5.3,2.8,3.4,3.3,�k�k��,1.5,��
2013/07/16,07:20,2.8,4.9,5.7,5.1,5.3,2.8,3.4,3.3,-,CALM,��
2013/07/16,07:30,2.8,4.9,5.7,5.1,5.3,2.8,3.4,3.3,�k,0.8,��
2013/07/16,07:40,2.8,4.9,5.7,5.1,5.3,2.8,3.4,3.3,�k,1.3,��
2013/07/16,07:50,2.8,4.9,5.7,5.1,5.3,2.8,3.4,3.3,�k��,1.8,��
2013/07/16,08:00,2.8,4.9,5.7,5.1,5.3,2.8,3.4,3.3,�k�k��,2.1,��
2013/07/16,08:10,2.8,4.9,5.7,5.1,5.4,2.8,3.4,3.3,�k��,2.6,��
2013/07/16,08:20,2.8,4.9,5.7,5.1,5.4,2.8,3.4,3.3,�k�k��,2.8,��
2013/07/16,08:30,2.8,4.9,5.7,5.1,5.4,2.8,3.4,3.3,�k��,3.8,��
2013/07/16,08:40,2.8,4.9,5.7,5.1,5.4,2.8,3.4,3.3,�k��,3.9,��
2013/07/16,08:50,2.8,4.9,5.7,5.1,5.4,2.8,3.4,3.3,�k��,4.9,��
2013/07/16,09:00,2.8,4.9,5.7,5.1,5.4,2.8,3.4,3.3,���k��,4.6,��
2013/07/16,09:10,2.8,4.9,5.7,5.1,5.4,2.8,3.4,3.3,�k��,4.7,��
2013/07/16,09:20,2.8,4.9,5.7,5.1,5.4,2.8,3.4,3.3,�k��,4.8,��
2013/07/16,09:30,2.8,4.9,5.7,5.1,5.4,2.8,3.4,3.3,�k��,4.8,��
2013/07/16,09:40,2.8,4.9,5.7,5.1,5.4,2.8,3.4,3.3,�k��,4.8,��
2013/07/16,09:50,2.8,-,5.7,5.1,5.4,2.8,3.4,3.3,�k��,4.4,��
2013/07/16,10:00,2.8,-,5.7,5.1,5.4,2.8,3.4,3.3,�k��,3.9,��
2013/07/16,10:10,2.8,-,5.7,5.1,5.4,2.8,3.4,3.3,�k��,4.2,��
2013/07/16,10:20,2.8,-,5.7,5.1,5.4,2.8,3.4,3.3,�k��,4.1,��
2013/07/16,10:30,2.8,-,5.7,5.1,5.4,2.8,3.4,3.3,�k��,3.7,��
2013/07/16,10:40,2.8,-,5.7,5.1,5.4,2.8,3.4,3.3,�k��,3.5,��
2013/07/16,10:50,2.8,-,5.7,5.1,5.4,2.8,3.4,3.3,�k��,3.0,��
2013/07/16,11:00,2.8,-,5.7,5.1,5.4,2.8,3.4,3.3,�k��,2.7,��
2013/07/16,11:10,2.8,-,5.7,5.1,5.4,2.8,3.4,3.3,��,3.0,��
2013/07/16,11:20,2.8,-,5.7,5.1,5.4,2.8,3.4,3.3,���k��,2.2,��
2013/07/16,11:30,2.8,-,5.7,5.1,5.4,2.8,3.4,3.3,���k��,2.3,��
2013/07/16,11:40,2.8,-,5.7,5.1,5.4,2.8,3.4,3.3,��,2.0,��
2013/07/16,11:50,2.8,-,5.7,5.1,5.4,2.8,3.4,3.3,��,2.6,��
2013/07/16,12:00,2.8,-,5.7,5.1,5.4,2.8,3.4,3.3,��,2.3,��
2013/07/16,12:10,2.8,5.0,5.7,5.1,5.4,2.9,3.4,3.3,���k��,2.4,��
2013/07/16,12:20,2.8,5.0,5.7,5.1,5.4,2.9,3.4,3.3,�k�k��,2.2,��
2013/07/16,12:30,2.8,5.0,5.7,5.1,5.4,2.9,3.4,3.3,���k��,2.5,��
2013/07/16,12:40,2.8,5.0,5.7,5.1,5.4,2.8,3.4,3.3,���k��,3.1,��
2013/07/16,12:50,2.8,5.0,5.7,5.1,5.4,2.8,3.4,3.3,�k��,3.1,��
2013/07/16,13:00,2.8,5.0,5.7,5.1,5.4,2.8,3.4,3.3,���k��,2.8,��
2013/07/16,13:10,2.8,5.0,5.7,5.1,5.4,2.8,3.4,3.3,���k��,2.8,��
2013/07/16,13:20,2.8,5.0,5.7,5.1,5.4,2.8,3.4,3.3,���k��,2.5,��
2013/07/16,13:30,2.8,5.0,5.7,5.1,5.4,2.8,3.4,3.3,���k��,2.6,��
2013/07/16,13:40,2.8,5.0,5.7,-,5.4,2.9,3.4,3.3,���k��,2.5,��
2013/07/16,13:50,2.8,5.0,5.7,-,5.4,2.8,3.4,3.3,�k��,2.8,��
2013/07/16,14:00,2.8,5.0,5.7,-,5.4,2.8,3.4,3.3,�k��,2.9,��
2013/07/16,14:10,2.8,5.0,5.7,-,5.4,2.9,3.4,3.3,�k��,2.6,��
2013/07/16,14:20,2.8,5.0,5.7,-,5.4,2.9,3.4,3.3,�k��,2.8,��
2013/07/16,14:30,2.8,5.0,5.7,-,5.4,2.9,3.4,3.3,�k�k��,2.6,��
2013/07/16,14:40,2.8,5.0,5.7,-,5.4,2.8,3.4,3.3,�k�k��,2.6,��
2013/07/16,14:50,2.8,5.0,5.7,-,5.4,2.8,3.4,3.3,�k��,2.9,��
2013/07/16,15:00,2.8,5.0,5.7,-,5.4,2.9,3.4,3.3,�k�k��,2.7,��
2013/07/16,15:10,2.8,5.0,5.7,-,5.4,2.9,3.4,3.3,���k��,3.1,��
2013/07/16,15:20,2.8,5.0,5.7,-,5.4,2.8,3.4,3.3,�k��,3.1,��
2013/07/16,15:30,2.8,5.0,5.7,-,5.4,2.9,3.4,3.3,�k��,2.8,��
2013/07/16,15:40,2.8,5.0,5.7,-,5.4,2.9,3.4,3.3,�k�k��,2.3,��
2013/07/16,15:50,2.8,5.0,5.7,-,5.4,2.9,3.4,3.3,�k��,2.4,��
2013/07/16,16:00,2.8,5.0,5.7,5.1,5.4,2.8,3.4,3.3,�k��,1.8,��
2013/07/16,16:10,2.8,5.0,5.7,5.1,5.4,2.8,3.4,3.3,�k��,2.2,��
2013/07/16,16:20,2.8,5.0,5.7,5.1,5.4,2.9,3.4,3.3,�k��,1.9,��
2013/07/16,16:30,2.8,5.0,5.7,5.1,5.4,2.9,3.4,3.3,���k��,2.4,��
2013/07/16,16:40,2.8,5.0,5.7,5.1,5.4,2.9,3.4,3.3,�k�k��,2.2,��
2013/07/16,16:50,2.8,5.0,5.7,5.1,5.4,2.9,3.4,3.3,�k��,2.6,��
2013/07/16,17:00,2.8,5.0,5.7,5.1,5.4,2.9,3.4,3.3,�k��,2.3,��
2013/07/16,17:10,2.8,5.0,5.7,5.1,5.4,2.9,3.4,3.3,�k,2.3,��
2013/07/16,17:20,2.8,5.0,5.7,5.1,5.4,2.9,3.4,3.3,�k��,2.7,��
2013/07/16,17:30,2.8,5.0,5.7,5.1,5.4,2.8,3.4,3.3,�k�k��,2.4,��
2013/07/16,17:40,2.8,5.0,5.7,5.1,5.4,2.8,3.4,3.3,�k��,2.3,��
2013/07/16,17:50,2.8,5.0,5.7,5.1,5.4,2.8,3.4,3.3,�k�k��,2.5,��
2013/07/16,18:00,2.8,5.0,5.7,5.1,5.4,2.8,3.4,3.3,�k�k��,2.2,��
2013/07/16,18:10,2.8,5.0,5.7,5.1,5.4,2.8,3.4,3.3,�k,2.6,��
2013/07/16,18:20,2.8,5.0,5.7,5.1,5.4,2.8,3.4,3.3,�k�k��,2.5,��
2013/07/16,18:30,2.8,5.0,5.7,5.1,5.4,2.9,3.4,3.3,�k�k��,2.5,��
2013/07/16,18:40,2.8,5.0,5.7,5.1,5.4,2.8,3.4,3.3,�k,2.4,��
2013/07/16,18:50,2.8,5.0,5.7,5.1,5.4,2.8,3.4,3.3,�k,2.1,��
2013/07/16,19:00,2.8,5.0,5.7,5.1,5.4,2.8,3.4,3.3,�k,2.6,��
2013/07/16,19:10,2.8,5.0,5.7,5.1,5.4,2.8,3.4,3.3,�k,2.3,��
2013/07/16,19:20,2.8,5.0,5.7,5.1,5.4,2.8,3.4,3.3,�k,2.7,��
2013/07/16,19:30,2.8,5.0,5.7,5.1,5.4,2.8,3.4,3.3,�k,2.6,��
2013/07/16,19:40,2.8,5.0,5.7,5.1,5.4,2.9,3.4,3.3,�k,2.1,��
2013/07/16,19:50,2.8,5.0,5.7,5.1,5.4,2.8,3.4,3.3,�k,2.5,��
2013/07/16,20:00,2.8,5.0,5.7,5.1,5.4,2.8,3.4,3.3,�k�k��,2.2,��
2013/07/16,20:10,2.8,5.0,5.7,5.1,5.4,2.8,3.4,3.3,�k,1.8,��
2013/07/16,20:20,2.8,5.0,5.7,5.1,5.4,2.8,3.4,3.3,�k�k��,1.8,��
2013/07/16,20:30,2.8,5.0,5.7,5.1,5.4,2.8,3.4,3.3,�k�k��,1.0,��
2013/07/16,20:40,2.8,5.0,5.7,5.1,5.4,2.8,3.4,3.3,�k�k��,0.9,��
2013/07/16,20:50,2.8,5.0,5.7,5.1,5.4,2.8,3.4,3.3,�k��,1.3,��
2013/07/16,21:00,2.8,5.0,5.7,5.1,5.4,2.8,3.4,3.3,�k�k��,1.1,��
2013/07/16,21:10,2.8,5.0,5.7,5.1,5.4,2.8,3.4,3.3,�k�k��,1.5,��
2013/07/16,21:20,2.8,5.0,5.7,5.1,5.4,2.8,3.4,3.3,�k�k��,1.9,��
2013/07/16,21:30,2.8,5.0,5.7,5.1,5.4,2.8,3.4,3.3,�k,2.1,��
2013/07/16,21:40,2.8,5.0,5.7,5.1,5.4,2.8,3.4,3.3,�k,1.9,��
2013/07/16,21:50,2.8,5.0,5.7,5.1,5.4,2.8,3.4,3.3,�k,1.8,��
2013/07/16,22:00,2.8,5.0,5.7,5.1,5.4,2.8,3.4,3.3,�k�k��,1.9,��
2013/07/16,22:10,2.8,5.0,5.7,5.1,5.4,2.8,3.4,3.3,�k�k��,1.4,��
2013/07/16,22:20,2.8,5.0,5.7,5.1,5.4,2.8,3.4,3.3,�k�k��,1.3,��
2013/07/16,22:30,2.8,5.0,5.7,5.1,5.4,2.8,3.4,3.3,�k�k��,1.3,��
2013/07/16,22:40,2.8,5.0,5.7,5.1,5.4,2.8,3.4,3.3,�k,1.1,��
2013/07/16,22:50,2.8,5.0,5.7,5.1,5.4,2.8,3.4,3.3,�k�k��,1.6,��
2013/07/16,23:00,2.8,5.0,5.7,5.1,5.4,2.9,3.4,3.3,�k,1.3,��
2013/07/16,23:10,2.8,5.0,5.7,5.1,5.4,2.8,3.4,3.3,�k,1.9,��
2013/07/16,23:20,2.8,5.0,5.7,5.1,5.4,2.8,3.4,3.3,�k�k��,1.8,��
2013/07/16,23:30,2.8,5.0,5.7,5.1,5.4,2.8,3.4,3.3,�k,1.7,��
2013/07/16,23:40,2.8,5.0,5.7,5.1,5.4,2.8,3.4,3.3,�k�k��,1.7,��
2013/07/16,23:50,2.8,5.0,5.7,5.1,5.4,2.8,3.4,3.3,�k,1.9,��
